Location: Freistadt
(48.5112°N, 14.5013°E)
Time: 09:17:10
(UTC+02:00)

PCSat - Pass Details

Date: 03 April 2023
Orbit: 783 x 794 km, 67.1° (Epoch: 29 May)

Event Time Altitude Azimuth Distance (km) Brightness Sun altitude
Rises 20:36:24 0° 316° (NW) 3,296 14.1 -10.6°
Reaches altitude 10° 20:41:00 10° 352° (N) 2,369 12.4 -11.3°
Maximum altitude 20:42:30 11° 8° (N) 2,297 12.1 -11.6°
Drops below altitude 10° 20:43:59 10° 24° (NNE) 2,370 12.0 -11.8°
Enters shadow 20:48:29 - 59° (ENE) 3,270 12.4 -12.5°
